This demonstration page uses our WeatherBlox Daily Observations layout. Learn more.

Left ArrowRight Arrow

39.29038, -76.61219

Hourly Observations for March 30, 2018

Temp ( °F °C ) Dew Point ( °F °C ) Humidity (%) Winds ( mph kmh ) Pressure ( in mb ) Visibility ( mi km ) Precip ( " mm )
12:54 am 00:54 undefined 64 17.8 54 12.2 70 70 undefined N/A 29.74 1007 N/A 0.00 0.00
1:54 am 01:54 undefined 72 22.2 55 12.8 55 55 undefined N/A 29.75 1008 N/A 0.00 0.00
2:54 am 02:54 undefined 70 21.1 55 12.8 59 59 undefined N/A 29.75 1007 N/A 0.00 0.00
3:54 am 03:54 undefined 68 20 55 12.8 63 63 undefined N/A 29.73 1007 N/A 0.00 0.00
4:54 am 04:54 undefined 70 21.1 56 13.3 61 61 undefined N/A 29.70 1006 N/A 0.00 0.00
5:54 am 05:54 undefined 69 20.6 56 13.3 63 63 undefined N/A 29.70 1006 N/A 0.00 0.00
6:54 am 06:54 undefined 69 20.6 56 13.3 63 63 undefined N/A 29.70 1006 N/A 0.00 0.00
7:54 am 07:54 undefined 69 20.6 56 13.3 63 63 undefined N/A 29.71 1006 N/A 0.00 0.00
8:54 am 08:54 undefined 69 20.6 57 13.9 66 66 undefined N/A 29.73 1007 N/A 0.00 0.00
9:54 am 09:54 undefined 71 21.7 58 14.4 63 63 undefined N/A 29.74 1007 N/A 0.00 0.00
10:54 am 10:54 undefined 73 22.8 58 14.4 59 59 undefined N/A 29.75 1008 N/A 0.00 0.00
11:54 am 11:54 undefined 74 23.3 57 13.9 56 56 undefined N/A 29.73 1007 N/A 0.00 0.00
12:54 pm 12:54 undefined 74 23.3 57 13.9 56 56 undefined N/A 29.72 1006 N/A 0.00 0.00
1:54 pm 13:54 undefined 61 16.1 56 13.3 84 84 undefined N/A 29.71 1006 N/A 0.28 7.11
2:54 pm 14:54 undefined 61 16.1 51 10.6 70 70 undefined N/A 29.80 1009 N/A 0.00 0.00
3:54 pm 15:54 undefined 56 13.3 45 7.2 67 67 undefined N/A 29.83 1010 N/A 0.00 0.00
4:54 pm 16:54 undefined 53 11.7 45 7.2 74 74 undefined N/A 29.86 1011 N/A 0.01 0.25
5:54 pm 17:54 undefined 53 11.7 41 5 64 64 undefined N/A 29.94 1014 N/A 0.00 0.00
6:54 pm 18:54 undefined 54 12.2 38 3.3 55 55 undefined N/A 29.96 1014 N/A 0.00 0.00
7:54 pm 19:54 undefined 53 11.7 38 3.3 57 57 undefined N/A 29.98 1015 N/A 0.00 0.00
8:54 pm 20:54 undefined 53 11.7 35 1.7 51 51 undefined N/A 30.04 1017 N/A 0.00 0.00
9:54 pm 21:54 undefined 51 10.6 34 1.1 52 52 undefined N/A 30.07 1018 N/A 0.00 0.00
10:54 pm 22:54 undefined 49 9.4 32 0 52 52 undefined N/A 30.10 1019 N/A 0.00 0.00
11:54 pm 23:54 undefined 47 8.3 32 0 56 56 undefined N/A 30.12 1020 N/A 0.00 0.00

Powered by AerisWeather